Regional Weather Roundup
Issued by NWS Charleston, SC

Current Version | Previous Version | Text Only | Print | Product List | Glossary Off
Versions: 1 2 3 4 5 6 7 8 9 10 11 12 13 14 15 16 17 18 19 20 21 22 23 24 25 26 27 28 29 30 31 32 33 34 35 36 37 38 39 40 41 42 43 44 45 46 47 48 49 50

979
ASUS42 KCHS 180412
RWRCHS

REGIONAL WEATHER ROUNDUP
NATIONAL WEATHER SERVICE CHARLESTON SC
1200 AM EDT FRI AUG 18 2017

NOTE: "FAIR" INDICATES FEW OR NO CLOUDS BELOW 12,000 FEET WITH NO
SIGNIFICANT WEATHER AND/OR OBSTRUCTIONS TO VISIBILITY.

NOT ALL STATIONS ARE QUALITY CONTROLLED. USE DATA WITH CAUTION...
ESPECIALLY DEWPOINT OBSERVATIONS.

SCZ027-030-031-034>040-042>050-180500-
...SOUTHEAST SOUTH CAROLINA...

CITY           SKY/WX    TMP DP  RH WIND       PRES   REMARKS
N CHARLESTON   PTCLDY    82  79  90 S7        29.98F HX  92
WATERFRONT PRK   N/A    N/A N/A N/A SW5       29.83S
JOHNS ISLAND   FAIR      84  82  94 SW8       29.99S HX 101
PINOPOLIS        N/A     82  79  89 SW6       29.91F HX  93
MONCKS CORNER  FAIR      79  77  94 SW3       29.98S
SUMMERVILLE    FAIR      81  77  89 SW3       29.99F
BEAUFORT MCAS  CLEAR     83  79  88 S3        30.00S HX  94
BEAUFORT ARPT  NOT AVBL
HILTON HEAD IS CLEAR     84  79  84 VRB6      30.01S HX  96
WALTERBORO     CLEAR     81  77  89 SW5       30.00S
ALLENDALE      NOT AVBL

...SOUTHERN MIDLANDS AND PEE DEE...

CITY           SKY/WX    TMP DP  RH WIND       PRES   REMARKS
GEORGETOWN     FAIR      79  77  94 CALM      30.00S
KINGSTREE      FAIR      77  75  94 CALM      29.98S
ORANGEBURG     CLOUDY    78  75  90 SW3       29.98F
BARNWELL       FAIR      84  77  79 CALM      29.98F HX  94
AIKEN          FAIR      79  73  83 SW5       30.03S
MANNING        FAIR      81  75  83 NW13      29.98S
COLUMBIA       CLEAR     84  75  74 SW3       29.96F HX  92
SUMTER         CLOUDY    82  74  78 SW3       29.95S
FLORENCE       PTCLDY    79  77  94 SE6       29.98S
MYRTLE BEACH   NOT AVBL
N MYRTLE BEACH PTCLDY    80  78  94 SW7       29.98F

$$

GAZ063-065-086>088-099>101-113>116-118-119-134>141-150-180500-
...SOUTHEAST GEORGIA...

CITY           SKY/WX    TMP DP  RH WIND       PRES   REMARKS
SAVANNAH ARPT  PTCLDY    82  74  76 SW7       30.01S
HUNTER AAF     PTCLDY    81  76  83 W5        29.99R
FORT STEWART   PTCLDY    79  75  87 CALM      29.99S
STATESBORO     CLEAR     81  73  75 S5        30.00F
SYLVANIA       CLEAR     81  78  91 CALM      30.01S
CLAXTON        FAIR      81  77  89 CALM      30.01F

...CSRA...CENTRAL AND FAR SOUTHEAST GEORGIA...

CITY           SKY/WX    TMP DP  RH WIND       PRES   REMARKS
THOMSON        CLEAR     78  75  91 W3        30.05S
AUGUSTA-BUSH   CLEAR     80  77  90 CALM      29.98S
AUGUSTA-DANIEL CLEAR     85  71  63 CALM      30.00S HX  90
SWAINSBORO     FAIR      79  77  94 CALM      30.01F
VIDALIA        CLOUDY    81  77  89 CALM      30.01F
EASTMAN        FAIR      78  78 100 CALM      30.03F
HAZLEHURST     FAIR      82  70  67 S3        30.01S
ALMA           PTCLDY    79  76  90 S3        30.02F
WAYCROSS       PTCLDY    78  74  90 SW3       30.03S
JESUP          FAIR      79  75  89 CALM      30.02F
BAXLEY         FAIR      77  77 100 S3        30.01F
BRUNSWICK      CLEAR     81  73  78 SW5       30.03S
SAINT SIMONS   CLEAR     82  78  88 S6        30.02F HX  91

$$

SCZ027-028-034-036>038-045-046-048>050-GAZ119-141-180500-
...LAKE AND SUPPLEMENTAL COASTAL OBSERVATIONS...

STATION/POSITION TIME  TEMP    WIND        PRES    WAVE   SWELL
                       AIR SEA DIR/SP/G            HT/PER HT/PER/DIR
                 (UTC) (F)     (DEG/KT/KT) (MB)    (FT/S) (FT/S/D)
WINYAH BAY       0245   81        CALM     1015.0
LAKE MURRAY      0320   86     260/  7/ 10 1013.9S
ACE BASIN NERRS  0245   83        CALM     1016.0
FORT PULASKI     0348   83 86  240/  4/  6 1016.5S
SAPELO ISLAND    0300   81        CALM     1017.0

$$

ANZ835-935-AMZ111-154-330-350-352-354-370-450-454-472-180500-
...C-MAN AND BUOY OBSERVATIONS...

STATION/POSITION TIME  TEMP    WIND        PRES    WAVE   SWELL
                       AIR SEA DIR/SP/G            HT/PER HT/PER/DIR
                 (UTC) (F)     (DEG/KT/KT) (MB)    (FT/S) (FT/S/D)
BUOY 41004       0350   85 85  210/ 12/ 14 1015.5F   2/ 8   2/120/ 8
BUOY 41008       0350   85 85  220/ 10/ 12 1016.2F   2/ 4
FOLLY BEACH CMAN 0400   86     210/ 18/ 20 1016.2F
CAPERS NEARSHORE 0308   83 86  230/ 14/ 17 1015.4R
FRIPP NEARSHORE  0308   86     220/ 14/ 17 1015.6R


STATION/POSITION TIME  TEMP    WIND        PRES    WAVE   SWELL
                       AIR SEA DIR/SP/G            HT/PER HT/PER/DIR
                 (UTC) (F)     (DEG/KT/KT) (MB)    (FT/S) (FT/S/D)
5E ST. MARYS GA  0400      85                N/A     1/ 8
FRYING PAN BUOY  0350   84 85  190/  8/ 10 1015.5F   2/ 5   2/210/ 5
BUOY 41025       0350   84 86  170/  8/ 10 1016.3S   2/ 6   2/100/ 6
CAPE LOOKOUT NC  0300   83     160/  9/ 10 1015.7R
BUOY 41002       0350   80 84  160/  6/ 10 1017.7F   2/ 6   2/120/ 6
BUOY 41010       0350   85 86  170/  8/ 10 1018.0F   2/ 8   2/110/ 8
ST AUGUSTINE FL  0400   78 82  230/  5/  6 1017.8F


$$




USA.gov is the U.S. government's official web portal to all federal, state and local government web resources and services.